Location: Unspecified
(37.6100°N, 2.7800°W)
Time: 01:18:32
(UTC+00:00)

Hubble Space Telescope - Visible Passes

Search period start: 17 January 2018 00:00
Search period end: 27 January 2018 00:00
Orbit: 537 x 541 km, 28.5° (Epoch: 16 January)

Date Brightness Start Highest point End Pass type
(mag) Time Alt. Az. Time Alt. Az. Time Alt. Az.
22 Jan 3.2 19:21:20 10° S 19:22:28 12° S 19:22:28 12° S visible
23 Jan 2.9 19:10:27 10° SSW 19:12:46 15° SSE 19:12:54 15° SSE visible
24 Jan 2.8 18:59:45 10° SSW 19:02:24 17° SSE 19:03:18 16° SSE visible
25 Jan 2.7 18:49:09 10° SW 18:52:03 19° S 18:53:41 15° SE visible
26 Jan 2.7 18:38:38 10° SW 18:41:42 20° S 18:44:04 13° SE visible
26 Jan 3.8 20:19:08 10° SW 20:19:26 11° SW 20:19:26 11° SW visible
